• In Kazakhstan
  • List of Countries
  • For 7 days
  • Water Temperature
  • Weather Map
  • News
  • Weather Widgets
  • user-avatar
    Login

    Hourly Weather São Paulo

    Today, 24 February, Monday

    Time Temperature Precipitation Wind Pressure Humidity
    00:00 +19°C° 0 mm 2 mps 699 mmHg 86%
    01:00 +19°C° 0 mm 2 mps 699 mmHg 86%
    02:00 +19°C° 0 mm 2 mps 698 mmHg 85%
    03:00 +20°C° 0 mm 1 mps 698 mmHg 85%
    04:00 +20°C° 0 mm 1 mps 698 mmHg 84%
    05:00 +20°C° 0 mm 1 mps 698 mmHg 84%
    06:00 +20°C° 0 mm 1 mps 698 mmHg 83%
    07:00 +21°C° 0 mm 1 mps 699 mmHg 78%
    08:00 +23°C° 0 mm 2 mps 699 mmHg 73%
    09:00 +25°C° 0 mm 2 mps 700 mmHg 67%
    10:00 +26°C° 0.3 mm 2 mps 700 mmHg 65%
    11:00 +27°C° 0.3 mm 2 mps 700 mmHg 63%
    12:00 +28°C° 0.3 mm 1 mps 700 mmHg 60%
    13:00 +28°C° 0.9 mm 1 mps 699 mmHg 62%
    14:00 +28°C° 0.9 mm 1 mps 699 mmHg 64%
    15:00 +28°C° 0.9 mm 1 mps 698 mmHg 66%
    16:00 +27°C° 0.7 mm 2 mps 698 mmHg 70%
    17:00 +26°C° 0.7 mm 2 mps 697 mmHg 74%
    18:00 +25°C° 0.7 mm 2 mps 697 mmHg 77%
    19:00 +25°C° 0.1 mm 2 mps 697 mmHg 79%
    20:00 +24°C° 0.1 mm 2 mps 698 mmHg 81%
    21:00 +23°C° 0.1 mm 2 mps 698 mmHg 83%
    22:00 +23°C° 0.1 mm 2 mps 698 mmHg 84%
    23:00 +23°C° 0.1 mm 2 mps 698 mmHg 85%

    Tomorrow, 25 February, Tuesday

    Time Temperature Precipitation Wind Pressure Humidity
    00:00 +23°C° 0.1 mm 2 mps 698 mmHg 87%
    01:00 +23°C° 0 mm 2 mps 697 mmHg 88%
    02:00 +23°C° 0 mm 2 mps 697 mmHg 88%
    03:00 +21°C° 0 mm 2 mps 696 mmHg 89%
    04:00 +22°C° 0 mm 1 mps 697 mmHg 89%
    05:00 +22°C° 0 mm 1 mps 697 mmHg 89%
    06:00 +22°C° 0 mm 1 mps 697 mmHg 89%
    07:00 +24°C° 0 mm 2 mps 698 mmHg 82%
    08:00 +25°C° 0 mm 2 mps 698 mmHg 76%
    09:00 +27°C° 0 mm 3 mps 699 mmHg 70%
    10:00 +28°C° 0.2 mm 3 mps 699 mmHg 66%
    11:00 +30°C° 0.2 mm 3 mps 699 mmHg 61%
    12:00 +31°C° 0.2 mm 3 mps 698 mmHg 57%
    13:00 +31°C° 0.6 mm 3 mps 698 mmHg 57%
    14:00 +31°C° 0.6 mm 2 mps 697 mmHg 58%
    15:00 +31°C° 0.6 mm 2 mps 697 mmHg 59%
    16:00 +30°C° 0.7 mm 2 mps 696 mmHg 63%
    17:00 +29°C° 0.7 mm 1 mps 696 mmHg 67%
    18:00 +28°C° 0.7 mm 1 mps 696 mmHg 71%
    19:00 +28°C° 0.4 mm 1 mps 696 mmHg 74%
    20:00 +27°C° 0.4 mm 1 mps 696 mmHg 76%
    21:00 +26°C° 0.4 mm 1 mps 697 mmHg 79%
    22:00 +26°C° 1.1 mm 1 mps 696 mmHg 79%
    23:00 +26°C° 1.1 mm 1 mps 696 mmHg 79%

    Day after tomorrow, 26 February, Wednesday

    Time Temperature Precipitation Wind Pressure Humidity
    00:00 +26°C° 1.1 mm 1 mps 696 mmHg 79%
    01:00 +25°C° 0.5 mm 1 mps 696 mmHg 80%
    02:00 +25°C° 0.5 mm 1 mps 695 mmHg 81%
    03:00 +25°C° 0.5 mm 1 mps 695 mmHg 82%
    04:00 +24°C° 0.6 mm 1 mps 695 mmHg 83%
    05:00 +24°C° 0.6 mm 1 mps 695 mmHg 84%
    06:00 +24°C° 0.6 mm 1 mps 695 mmHg 85%
    07:00 +25°C° 1.2 mm 2 mps 695 mmHg 83%
    08:00 +25°C° 1.2 mm 3 mps 695 mmHg 81%
    09:00 +26°C° 1.2 mm 3 mps 696 mmHg 79%
    10:00 +26°C° 0.3 mm 4 mps 695 mmHg 77%
    11:00 +26°C° 0.3 mm 4 mps 695 mmHg 76%
    12:00 +27°C° 0.3 mm 4 mps 694 mmHg 74%
    13:00 +28°C° 0 mm 4 mps 694 mmHg 72%
    14:00 +28°C° 0 mm 4 mps 693 mmHg 69%
    15:00 +29°C° 0 mm 5 mps 693 mmHg 66%
    16:00 +28°C° 0.8 mm 4 mps 693 mmHg 69%
    17:00 +28°C° 0.8 mm 4 mps 692 mmHg 71%
    18:00 +27°C° 0.8 mm 3 mps 692 mmHg 74%
    19:00 +27°C° 1.6 mm 3 mps 693 mmHg 77%
    20:00 +26°C° 1.6 mm 3 mps 693 mmHg 80%
    21:00 +25°C° 1.6 mm 2 mps 694 mmHg 83%
    22:00 +25°C° 2 mm 2 mps 694 mmHg 85%
    23:00 +24°C° 2 mm 2 mps 694 mmHg 88%

    27 February, Thursday

    Time Temperature Precipitation Wind Pressure Humidity
    00:00 +24°C° 2 mm 2 mps 694 mmHg 91%
    01:00 +23°C° 0.9 mm 2 mps 694 mmHg 90%
    02:00 +23°C° 0.9 mm 2 mps 693 mmHg 90%
    03:00 +21°C° 0.9 mm 2 mps 693 mmHg 90%
    04:00 +21°C° 2.6 mm 3 mps 693 mmHg 90%
    05:00 +21°C° 2.6 mm 4 mps 694 mmHg 91%
    06:00 +21°C° 2.6 mm 4 mps 694 mmHg 91%
    07:00 +20°C° 2.8 mm 4 mps 695 mmHg 92%
    08:00 +20°C° 2.8 mm 4 mps 695 mmHg 92%
    09:00 +20°C° 2.8 mm 4 mps 696 mmHg 93%
    10:00 +20°C° 1.2 mm 4 mps 696 mmHg 91%
    11:00 +20°C° 1.2 mm 4 mps 696 mmHg 89%
    12:00 +20°C° 1.2 mm 5 mps 696 mmHg 88%
    13:00 +19°C° 0.1 mm 4 mps 696 mmHg 87%
    14:00 +19°C° 0.1 mm 4 mps 696 mmHg 86%
    15:00 +19°C° 0.1 mm 4 mps 695 mmHg 85%
    16:00 +19°C° 0.1 mm 4 mps 696 mmHg 86%
    17:00 +19°C° 0.1 mm 4 mps 696 mmHg 86%
    18:00 +19°C° 0.1 mm 4 mps 696 mmHg 86%
    19:00 +19°C° 0 mm 4 mps 696 mmHg 86%
    20:00 +19°C° 0 mm 3 mps 697 mmHg 86%
    21:00 +19°C° 0 mm 3 mps 697 mmHg 85%
    22:00 +18°C° 0 mm 3 mps 697 mmHg 85%
    23:00 +18°C° 0 mm 3 mps 697 mmHg 84%

    28 February, Friday

    Time Temperature Precipitation Wind Pressure Humidity
    00:00 +18°C° 0 mm 3 mps 697 mmHg 84%
    01:00 +18°C° 0 mm 3 mps 697 mmHg 84%
    02:00 +18°C° 0 mm 2 mps 696 mmHg 84%
    03:00 +17°C° 0 mm 2 mps 696 mmHg 83%
    04:00 +17°C° 0 mm 2 mps 696 mmHg 84%
    05:00 +17°C° 0 mm 2 mps 697 mmHg 84%
    06:00 +17°C° 0 mm 2 mps 697 mmHg 84%
    07:00 +18°C° 0 mm 2 mps 697 mmHg 80%
    08:00 +20°C° 0 mm 2 mps 698 mmHg 76%
    09:00 +21°C° 0 mm 3 mps 698 mmHg 72%
    10:00 +22°C° 0 mm 3 mps 699 mmHg 70%
    11:00 +22°C° 0 mm 3 mps 699 mmHg 69%
    12:00 +24°C° 0 mm 3 mps 699 mmHg 67%
    13:00 +24°C° 0 mm 3 mps 699 mmHg 69%
    14:00 +23°C° 0 mm 4 mps 698 mmHg 70%
    15:00 +23°C° 0 mm 4 mps 697 mmHg 71%
    16:00 +22°C° 0 mm 4 mps 698 mmHg 74%
    17:00 +22°C° 0 mm 4 mps 698 mmHg 77%
    18:00 +21°C° 0 mm 4 mps 698 mmHg 79%
    19:00 +21°C° 0 mm 4 mps 698 mmHg 81%
    20:00 +20°C° 0 mm 3 mps 698 mmHg 83%
    21:00 +20°C° 0 mm 3 mps 699 mmHg 85%
    22:00 +20°C° 0 mm 3 mps 699 mmHg 86%
    23:00 +20°C° 0 mm 3 mps 699 mmHg 86%

    29 February, Saturday

    Time Temperature Precipitation Wind Pressure Humidity
    00:00 +19°C° 0 mm 3 mps 699 mmHg 87%
    01:00 +19°C° 0 mm 3 mps 698 mmHg 87%
    02:00 +19°C° 0 mm 2 mps 698 mmHg 87%
    03:00 +20°C° 0 mm 2 mps 698 mmHg 87%
    04:00 +19°C° 0 mm 2 mps 698 mmHg 87%
    05:00 +19°C° 0 mm 2 mps 698 mmHg 87%
    06:00 +19°C° 0 mm 2 mps 698 mmHg 88%
    07:00 +20°C° 0 mm 2 mps 699 mmHg 85%
    08:00 +20°C° 0 mm 2 mps 699 mmHg 82%
    09:00 +21°C° 0 mm 2 mps 700 mmHg 79%
    10:00 +21°C° 0.3 mm 2 mps 700 mmHg 80%
    11:00 +21°C° 0.3 mm 2 mps 700 mmHg 82%
    12:00 +21°C° 0.3 mm 3 mps 700 mmHg 84%
    13:00 +21°C° 0.1 mm 3 mps 699 mmHg 83%
    14:00 +21°C° 0.1 mm 3 mps 699 mmHg 83%
    15:00 +22°C° 0.1 mm 3 mps 698 mmHg 83%
    16:00 +21°C° 0.2 mm 4 mps 698 mmHg 85%
    17:00 +21°C° 0.2 mm 4 mps 698 mmHg 87%
    18:00 +21°C° 0.2 mm 4 mps 698 mmHg 89%
    19:00 +21°C° 0.1 mm 4 mps 699 mmHg 89%
    20:00 +20°C° 0.1 mm 4 mps 699 mmHg 89%
    21:00 +20°C° 0.1 mm 4 mps 700 mmHg 89%
    22:00 +20°C° 0 mm 4 mps 700 mmHg 89%
    23:00 +20°C° 0 mm 4 mps 700 mmHg 89%
    Show more